Regional Weather Roundup
Issued by NWS

Home | Current Version | Previous Version | Graphics & Text | Print | Product List | Glossary On
Versions: 1 2 3 4 5 6 7 8 9 10 11 12 13 14 15 16 17 18 19 20 21 22 23 24 25 26 27 28 29 30 31 32 33 34 35 36 37 38 39 40 41 42 43 44 45 46 47 48 49 50
346
ASUS44 KLIX 230110
RWRLA
LOUISIANA WEATHER ROUNDUP
NATIONAL WEATHER SERVICE NEW ORLEANS LA
800 PM CDT TUE JUL 22 2014

NOTE: "FAIR" INDICATES FEW OR NO CLOUDS BELOW 12,000 FEET WITH NO
      SIGNIFICANT WEATHER AND/OR OBSTRUCTIONS TO VISIBILITY.
      SKY/WX - SKY CONDITION AND SIGNIFICANT WEATHER.
      TMP - AIR TEMPERATURE.    DP   - DEWPOINT TEMPERATURE.
      RH  - RELATIVE HUMIDITY.  PRES - PRESSURE.
      HX  - HEAT INDEX.         WCI  - WIND CHILL INDEX.

*  THESE STATIONS ARE NOT NWS OR FAA STATIONS AND ARE NOT UNDER
   NWS QUALITY CONTROL.

LAZ040-048-061>063-065-066-069-230200-
SOUTHEAST LOUISIANA

CITY           SKY/WX    TMP DP  RH WIND       PRES   REMARKS
N.O. AUDUBON     N/A     82  72  72 MISG        N/A
N.O. INTL ARPT CLOUDY    80  72  76 E3        29.99F
N.O. LAKEFRONT CLOUDY    79  76  90 E8        30.01F
N.O. DOWNTOWN* FAIR      82  70  65 NE5       30.01R
SLIDELL        CLOUDY    76  72  87 CALM      30.01S
BATON ROUGE    CLOUDY    76  73  91 N3        30.00F
BOOTHVILLE     MOCLDY    80  73  79 N5        30.01R
BELLE CHASSE   NOT AVBL
BOGALUSA*        N/A     74  70  87 NE3       30.06R
GALLIANO*      NOT AVBL
NEW ROADS*     FAIR      75  72  89 N5        30.01S
GONZALES*      MOCLDY    82  76  79 CALM      29.99R
HAMMOND*       MOCLDY    81  70  69 NE7       30.03R
HOUMA*         MOCLDY    79  73  80 CALM      29.99S
PORT FOURCHON* CLEAR     84  75  74 CALM      30.02R

$$

LAZ041-044-053-054-230200-
SOUTHWEST LOUISIANA

CITY           SKY/WX    TMP DP  RH WIND       PRES   REMARKS
LAKE CHARLES   CLEAR     82  74  76 CALM      29.99S
LAFAYETTE      MOCLDY    86  74  67 CALM      29.99F
PATTERSON      MOCLDY    81  75  83 CALM      30.02F
SALT POINT       N/A     86  78  77 N3        29.98F HX  98
NEW IBERIA     CLOUDY    85  71  63 N3        29.99F
CHENAULT AIRPK CLEAR     84  72  65 CALM      30.00S

$$

LAZ027-028-230200-
CENTRAL LOUISIANA

CITY           SKY/WX    TMP DP  RH WIND       PRES   REMARKS
FORT POLK      CLEAR     83  72  69 CALM      30.01S
ALEXANDRIA INT MOCLDY    85  73  67 NE3       30.00R
ALEXANDRIA     CLOUDY    87  72  60 E6        30.02R

$$

LAZ001-002-230200-
NORTHWEST LOUISIANA

CITY           SKY/WX    TMP DP  RH WIND       PRES   REMARKS
SHREVEPORT     PTCLDY    86  68  54 N6        30.02S
BARKSDALE AFB  CLEAR     84  69  59 NE5       30.03S
DTN SHREVEPORT   N/A     85  68  56 CALM      30.03R

$$

LAZ014-016-230200-
NORTHEAST LOUISIANA

CITY           SKY/WX    TMP DP  RH WIND       PRES   REMARKS
MONROE         PTCLDY    84  71  65 E3        30.03S
TALLULAH       PTCLDY    79  72  79 E5        30.04R

$$




USA.gov is the U.S. government's official web portal to all federal, state and local government web resources and services.